Saint Bonnet de Bellac- Haute Vienne - France
Donnes mto: mercredi, 18/01/2012
Date Horaire Temp. E. Hum. E. P.atmo. Pluie Vent Direction Direction Ensoleilleme Solaire P. de rose Temp au vent Rafales
18/01/2012 00:00 2,6 C 92 % 1029,7 hPa 0,0 mm 0,0 km/h (0 Bft) S-SO 202 0 min 0 W/m 1,4 C 2,6 C 0,0 km/h (0 Bft)
18/01/2012 00:10 2,6 C 92 % 1029,8 hPa 0,0 mm 0,0 km/h (0 Bft) S 180 0 min 0 W/m 1,4 C 2,6 C 3,6 km/h (1 Bft)
18/01/2012 00:20 2,6 C 92 % 1029,8 hPa 0,0 mm 0,0 km/h (0 Bft) S-SO 202 0 min 0 W/m 1,4 C 2,6 C 0,0 km/h (0 Bft)
18/01/2012 00:30 2,6 C 92 % 1029,8 hPa 0,0 mm 0,0 km/h (0 Bft) S 180 0 min 0 W/m 1,4 C 2,6 C 0,0 km/h (0 Bft)
18/01/2012 00:40 2,5 C 92 % 1029,9 hPa 0,0 mm 0,0 km/h (0 Bft) S 180 0 min 0 W/m 1,3 C 2,5 C 0,0 km/h (0 Bft)
18/01/2012 00:50 2,2 C 91 % 1030,1 hPa 0,0 mm 0,0 km/h (0 Bft) S 180 0 min 0 W/m 0,9 C 2,2 C 0,0 km/h (0 Bft)
18/01/2012 01:00 1,8 C 91 % 1030,0 hPa 0,0 mm 0,0 km/h (0 Bft) S 180 0 min 0 W/m 0,5 C 1,8 C 0,0 km/h (0 Bft)
18/01/2012 01:10 1,4 C 91 % 1030,0 hPa 0,0 mm 0,0 km/h (0 Bft) S 180 0 min 0 W/m 0,1 C 1,4 C 0,0 km/h (0 Bft)
18/01/2012 01:20 1,1 C 91 % 1029,9 hPa 0,0 mm 0,0 km/h (0 Bft) S-SE 157 0 min 0 W/m -0,2 C 1,1 C 0,0 km/h (0 Bft)
18/01/2012 01:30 0,8 C 91 % 1030,0 hPa 0,0 mm 0,0 km/h (0 Bft) S-SE 157 0 min 0 W/m -0,5 C 0,8 C 0,0 km/h (0 Bft)
18/01/2012 01:40 0,6 C 91 % 1030,2 hPa 0,0 mm 0,0 km/h (0 Bft) S-SE 157 0 min 0 W/m -0,7 C 0,6 C 0,0 km/h (0 Bft)
18/01/2012 01:50 0,4 C 91 % 1030,1 hPa 0,0 mm 0,0 km/h (0 Bft) S-SE 157 0 min 0 W/m -0,9 C 0,4 C 0,0 km/h (0 Bft)
18/01/2012 02:02 0,3 C 91 % 1030,0 hPa 0,0 mm 0,0 km/h (0 Bft) S-SE 157 0 min 0 W/m -1,0 C 0,3 C 0,0 km/h (0 Bft)
18/01/2012 02:10 0,1 C 92 % 1029,7 hPa 0,0 mm 0,7 km/h (0 Bft) SE 135 0 min 0 W/m -1,0 C 0,1 C 4,3 km/h (1 Bft)
18/01/2012 02:20 0,3 C 92 % 1029,8 hPa 0,0 mm 0,0 km/h (0 Bft) S 180 0 min 0 W/m -0,8 C 0,3 C 0,0 km/h (0 Bft)
18/01/2012 02:30 0,2 C 92 % 1029,9 hPa 0,0 mm 0,0 km/h (0 Bft) S 180 0 min 0 W/m -0,9 C 0,2 C 0,0 km/h (0 Bft)
18/01/2012 02:40 0,0 C 92 % 1030,0 hPa 0,0 mm 0,0 km/h (0 Bft) S 180 0 min 0 W/m -1,1 C 0,0 C 0,0 km/h (0 Bft)
18/01/2012 02:50 -0,1 C 92 % 1030,2 hPa 0,0 mm 0,0 km/h (0 Bft) S 180 0 min 0 W/m -1,2 C -0,1 C 0,0 km/h (0 Bft)
18/01/2012 03:00 -0,1 C 92 % 1030,3 hPa 0,0 mm 0,0 km/h (0 Bft) S 180 0 min 0 W/m -1,2 C -0,1 C 0,0 km/h (0 Bft)
18/01/2012 03:10 0,2 C 93 % 1030,2 hPa 0,0 mm 0,0 km/h (0 Bft) S 180 0 min 0 W/m -0,8 C 0,2 C 1,4 km/h (1 Bft)
18/01/2012 03:20 0,5 C 93 % 1030,1 hPa 0,0 mm 0,0 km/h (0 Bft) S 180 0 min 0 W/m -0,5 C 0,5 C 1,4 km/h (1 Bft)
18/01/2012 03:30 0,8 C 93 % 1030,1 hPa 0,0 mm 0,7 km/h (0 Bft) S-SE 157 0 min 0 W/m -0,2 C 0,8 C 3,2 km/h (1 Bft)
18/01/2012 03:40 0,9 C 93 % 1030,1 hPa 0,0 mm 0,0 km/h (0 Bft) S-SO 202 0 min 0 W/m -0,1 C 0,9 C 0,0 km/h (0 Bft)
18/01/2012 03:50 1,1 C 93 % 1030,0 hPa 0,0 mm 0,0 km/h (0 Bft) S-SO 202 0 min 0 W/m 0,1 C 1,1 C 0,0 km/h (0 Bft)
18/01/2012 04:00 1,3 C 93 % 1030,1 hPa 0,0 mm 0,0 km/h (0 Bft) S-SE 157 0 min 0 W/m 0,3 C 1,3 C 0,0 km/h (0 Bft)
18/01/2012 04:10 1,5 C 93 % 1030,0 hPa 0,0 mm 0,7 km/h (0 Bft) S-SO 202 0 min 0 W/m 0,5 C 1,5 C 0,7 km/h (0 Bft)
18/01/2012 04:20 1,8 C 93 % 1030,0 hPa 0,0 mm 0,7 km/h (0 Bft) S-SO 202 0 min 0 W/m 0,8 C 1,8 C 0,7 km/h (0 Bft)
18/01/2012 04:30 1,9 C 93 % 1030,0 hPa 0,0 mm 2,5 km/h (1 Bft) S-SO 202 0 min 0 W/m 0,9 C 1,9 C 4,3 km/h (1 Bft)
18/01/2012 04:40 2,1 C 93 % 1029,9 hPa 0,0 mm 0,0 km/h (0 Bft) S-SO 202 0 min 0 W/m 1,1 C 2,1 C 0,0 km/h (0 Bft)
18/01/2012 04:50 2,1 C 92 % 1029,8 hPa 0,0 mm 0,0 km/h (0 Bft) S 180 0 min 0 W/m 0,9 C 2,1 C 0,0 km/h (0 Bft)
18/01/2012 05:00 2,3 C 92 % 1030,1 hPa 0,0 mm 0,0 km/h (0 Bft) S-SO 202 0 min 0 W/m 1,1 C 2,3 C 0,0 km/h (0 Bft)
18/01/2012 05:10 2,4 C 92 % 1030,0 hPa 0,0 mm 0,0 km/h (0 Bft) SO 225 0 min 0 W/m 1,2 C 2,4 C 0,0 km/h (0 Bft)
18/01/2012 05:20 2,4 C 92 % 1030,0 hPa 0,0 mm 0,4 km/h (0 Bft) S 180 0 min 0 W/m 1,2 C 2,4 C 3,6 km/h (1 Bft)
18/01/2012 05:30 2,5 C 92 % 1029,9 hPa 0,0 mm 0,0 km/h (0 Bft) S-SO 202 0 min 0 W/m 1,3 C 2,5 C 0,0 km/h (0 Bft)
18/01/2012 05:40 2,6 C 91 % 1030,0 hPa 0,0 mm 1,8 km/h (1 Bft) S-SO 202 0 min 0 W/m 1,3 C 2,6 C 4,7 km/h (1 Bft)
18/01/2012 05:50 2,6 C 91 % 1030,0 hPa 0,0 mm 0,0 km/h (0 Bft) S-SO 202 0 min 0 W/m 1,3 C 2,6 C 0,0 km/h (0 Bft)
18/01/2012 06:00 2,6 C 91 % 1030,0 hPa 0,0 mm 0,0 km/h (0 Bft) S-SO 202 0 min 0 W/m 1,3 C 2,6 C 0,0 km/h (0 Bft)
18/01/2012 06:10 2,6 C 91 % 1030,1 hPa 0,0 mm 0,0 km/h (0 Bft) S 180 0 min 0 W/m 1,3 C 2,6 C 0,0 km/h (0 Bft)
18/01/2012 06:20 2,6 C 91 % 1030,3 hPa 0,0 mm 1,1 km/h (1 Bft) S 180 0 min 0 W/m 1,3 C 2,6 C 4,3 km/h (1 Bft)
18/01/2012 06:30 2,6 C 90 % 1030,4 hPa 0,0 mm 0,0 km/h (0 Bft) S-SO 202 0 min 0 W/m 1,1 C 2,6 C 0,0 km/h (0 Bft)
18/01/2012 06:40 2,6 C 90 % 1030,6 hPa 0,0 mm 0,0 km/h (0 Bft) S-SO 202 0 min 0 W/m 1,1 C 2,6 C 0,0 km/h (0 Bft)
18/01/2012 06:50 2,6 C 90 % 1030,7 hPa 0,0 mm 0,0 km/h (0 Bft) S-SO 202 0 min 0 W/m 1,1 C 2,6 C 0,0 km/h (0 Bft)
18/01/2012 07:00 2,6 C 90 % 1030,8 hPa 0,0 mm 0,0 km/h (0 Bft) S-SO 202 0 min 0 W/m 1,1 C 2,6 C 3,2 km/h (1 Bft)
18/01/2012 07:10 2,6 C 90 % 1030,7 hPa 0,0 mm 1,4 km/h (1 Bft) S-SE 157 0 min 0 W/m 1,1 C 2,6 C 4,0 km/h (1 Bft)
18/01/2012 07:20 2,8 C 90 % 1030,7 hPa 0,0 mm 4,0 km/h (1 Bft) S 180 0 min 0 W/m 1,3 C 2,8 C 7,9 km/h (2 Bft)
18/01/2012 07:30 2,9 C 89 % 1030,7 hPa 0,0 mm 3,6 km/h (1 Bft) S-SE 157 0 min 0 W/m 1,3 C 2,9 C 4,0 km/h (1 Bft)
18/01/2012 07:40 2,9 C 88 % 1030,7 hPa 0,0 mm 2,9 km/h (1 Bft) S-SE 157 0 min 0 W/m 1,1 C 2,9 C 4,3 km/h (1 Bft)
18/01/2012 07:50 2,9 C 88 % 1030,7 hPa 0,0 mm 1,8 km/h (1 Bft) S 180 0 min 0 W/m 1,1 C 2,9 C 3,6 km/h (1 Bft)
18/01/2012 08:00 2,9 C 88 % 1031,0 hPa 0,0 mm 2,5 km/h (1 Bft) S-SE 157 0 min 0 W/m 1,1 C 2,9 C 7,6 km/h (2 Bft)
18/01/2012 08:10 2,9 C 87 % 1031,3 hPa 0,0 mm 1,1 km/h (1 Bft) S-SO 202 0 min 0 W/m 1,0 C 2,9 C 6,1 km/h (2 Bft)
18/01/2012 08:20 2,9 C 87 % 1031,4 hPa 0,0 mm 1,4 km/h (1 Bft) S-SE 157 0 min 0 W/m 1,0 C 2,9 C 4,0 km/h (1 Bft)
18/01/2012 08:30 2,9 C 87 % 1031,3 hPa 0,0 mm 1,4 km/h (1 Bft) S-SO 202 0 min 0 W/m 1,0 C 2,9 C 6,8 km/h (2 Bft)
18/01/2012 08:40 2,8 C 87 % 1031,3 hPa 0,0 mm 2,2 km/h (1 Bft) S 180 0 min 0 W/m 0,9 C 2,8 C 3,6 km/h (1 Bft)
18/01/2012 08:50 2,6 C 87 % 1031,5 hPa 0,0 mm 1,1 km/h (1 Bft) S 180 2 min 0 W/m 0,7 C 2,6 C 3,2 km/h (1 Bft)
18/01/2012 09:00 2,4 C 87 % 1031,4 hPa 0,0 mm 1,4 km/h (1 Bft) S 180 2 min 0 W/m 0,5 C 2,4 C 1,4 km/h (1 Bft)
18/01/2012 09:10 2,2 C 87 % 1031,4 hPa 0,0 mm 1,1 km/h (1 Bft) S 180 2 min 0 W/m 0,3 C 2,2 C 4,0 km/h (1 Bft)
18/01/2012 09:20 2,3 C 88 % 1031,3 hPa 0,0 mm 1,1 km/h (1 Bft) S-SO 202 2 min 0 W/m 0,5 C 2,3 C 3,6 km/h (1 Bft)
18/01/2012 09:30 2,8 C 87 % 1031,2 hPa 0,0 mm 6,5 km/h (2 Bft) S 180 2 min 0 W/m 0,9 C 1,0 C 7,6 km/h (2 Bft)
18/01/2012 09:40 3,4 C 87 % 1031,4 hPa 0,0 mm 1,8 km/h (1 Bft) S-SE 157 2 min 0 W/m 1,4 C 3,4 C 6,8 km/h (2 Bft)
18/01/2012 09:50 3,9 C 85 % 1031,5 hPa 0,0 mm 1,8 km/h (1 Bft) S 180 2 min 0 W/m 1,6 C 3,9 C 4,0 km/h (1 Bft)
18/01/2012 10:00 4,5 C 84 % 1031,5 hPa 0,0 mm 2,5 km/h (1 Bft) S-SE 157 2 min 0 W/m 2,0 C 4,5 C 6,5 km/h (2 Bft)
18/01/2012 10:10 4,9 C 82 % 1031,7 hPa 0,0 mm 0,0 km/h (0 Bft) S 180 2 min 0 W/m 2,1 C 4,9 C 3,2 km/h (1 Bft)
18/01/2012 10:20 5,4 C 81 % 1031,7 hPa 0,0 mm 1,4 km/h (1 Bft) S-SE 157 2 min 0 W/m 2,4 C 5,4 C 6,5 km/h (2 Bft)
18/01/2012 10:30 5,8 C 80 % 1031,6 hPa 0,0 mm 5,0 km/h (1 Bft) S 180 2 min 0 W/m 2,6 C 5,0 C 8,3 km/h (2 Bft)
18/01/2012 10:40 6,2 C 78 % 1031,9 hPa 0,0 mm 5,8 km/h (2 Bft) S-SO 202 2 min 0 W/m 2,7 C 5,2 C 6,1 km/h (2 Bft)
18/01/2012 10:50 6,4 C 77 % 1032,1 hPa 0,0 mm 7,2 km/h (2 Bft) S 180 2 min 0 W/m 2,7 C 5,0 C 9,0 km/h (2 Bft)
18/01/2012 11:00 6,6 C 76 % 1032,3 hPa 0,0 mm 7,6 km/h (2 Bft) S 180 2 min 0 W/m 2,7 C 5,1 C 7,6 km/h (2 Bft)
18/01/2012 11:10 6,6 C 76 % 1032,4 hPa 0,0 mm 2,9 km/h (1 Bft) S 180 2 min 0 W/m 2,7 C 6,6 C 6,5 km/h (2 Bft)
18/01/2012 11:20 6,8 C 74 % 1032,5 hPa 0,0 mm 1,4 km/h (1 Bft) SO 225 2 min 0 W/m 2,5 C 6,8 C 4,3 km/h (1 Bft)
18/01/2012 11:30 6,8 C 74 % 1032,4 hPa 0,0 mm 6,8 km/h (2 Bft) SO 225 2 min 0 W/m 2,5 C 5,6 C 10,1 km/h (2 Bft)
18/01/2012 11:40 6,9 C 75 % 1032,5 hPa 0,0 mm 6,5 km/h (2 Bft) S-SO 202 2 min 0 W/m 2,8 C 5,8 C 11,2 km/h (2 Bft)
18/01/2012 11:50 6,9 C 74 % 1032,3 hPa 0,0 mm 6,8 km/h (2 Bft) S-SE 157 2 min 0 W/m 2,6 C 5,7 C 7,2 km/h (2 Bft)
18/01/2012 12:00 7,4 C 75 % 1032,3 hPa 0,0 mm 2,5 km/h (1 Bft) S-SO 202 2 min 0 W/m 3,3 C 7,4 C 6,8 km/h (2 Bft)
18/01/2012 12:10 7,9 C 75 % 1032,2 hPa 0,0 mm 5,8 km/h (2 Bft) S-SO 202 2 min 0 W/m 3,7 C 7,1 C 10,1 km/h (2 Bft)
18/01/2012 12:20 8,1 C 72 % 1032,3 hPa 0,0 mm 3,6 km/h (1 Bft) O-SO 247 2 min 0 W/m 3,4 C 8,1 C 7,9 km/h (2 Bft)
18/01/2012 12:30 8,3 C 72 % 1032,4 hPa 0,0 mm 3,6 km/h (1 Bft) SO 225 2 min 0 W/m 3,6 C 8,3 C 4,0 km/h (1 Bft)
18/01/2012 12:40 8,5 C 73 % 1032,4 hPa 0,0 mm 1,8 km/h (1 Bft) SO 225 2 min 0 W/m 3,9 C 8,5 C 4,0 km/h (1 Bft)
18/01/2012 12:50 8,5 C 71 % 1032,4 hPa 0,0 mm 4,7 km/h (1 Bft) SO 225 2 min 0 W/m 3,5 C 8,2 C 6,1 km/h (2 Bft)
18/01/2012 13:00 8,4 C 72 % 1032,2 hPa 0,0 mm 6,1 km/h (2 Bft) S-SO 202 2 min 0 W/m 3,7 C 7,6 C 7,9 km/h (2 Bft)
18/01/2012 13:10 8,4 C 72 % 1032,3 hPa 0,0 mm 5,4 km/h (2 Bft) S 180 2 min 0 W/m 3,7 C 7,8 C 10,1 km/h (2 Bft)
18/01/2012 13:20 8,5 C 72 % 1032,2 hPa 0,0 mm 4,7 km/h (1 Bft) SO 225 2 min 0 W/m 3,7 C 8,2 C 6,8 km/h (2 Bft)
18/01/2012 13:30 8,6 C 71 % 1032,2 hPa 0,0 mm 7,9 km/h (2 Bft) SO 225 2 min 0 W/m 3,6 C 7,4 C 10,4 km/h (2 Bft)
18/01/2012 13:40 8,7 C 72 % 1032,1 hPa 0,0 mm 6,5 km/h (2 Bft) S-SO 202 2 min 0 W/m 3,9 C 7,8 C 9,0 km/h (2 Bft)
18/01/2012 13:50 8,9 C 71 % 1032,1 hPa 0,0 mm 5,4 km/h (2 Bft) SO 225 2 min 0 W/m 3,9 C 8,4 C 8,6 km/h (2 Bft)
18/01/2012 14:00 8,8 C 70 % 1032,1 hPa 0,0 mm 4,0 km/h (1 Bft) O-SO 247 2 min 0 W/m 3,6 C 8,8 C 4,0 km/h (1 Bft)
18/01/2012 14:10 8,5 C 72 % 1031,7 hPa 0,0 mm 6,5 km/h (2 Bft) S-SO 202 2 min 0 W/m 3,7 C 7,6 C 6,5 km/h (2 Bft)
18/01/2012 14:20 8,5 C 72 % 1031,5 hPa 0,0 mm 4,7 km/h (1 Bft) S-SO 202 2 min 0 W/m 3,7 C 8,2 C 6,5 km/h (2 Bft)
18/01/2012 14:30 8,6 C 72 % 1031,5 hPa 0,0 mm 5,4 km/h (2 Bft) S-SO 202 2 min 0 W/m 3,8 C 8,0 C 5,4 km/h (2 Bft)
18/01/2012 14:40 8,3 C 72 % 1031,4 hPa 0,0 mm 4,0 km/h (1 Bft) SO 225 2 min 0 W/m 3,6 C 8,3 C 6,5 km/h (2 Bft)
18/01/2012 14:50 8,1 C 73 % 1031,3 hPa 0,0 mm 1,4 km/h (1 Bft) SO 225 2 min 0 W/m 3,6 C 8,1 C 3,6 km/h (1 Bft)
18/01/2012 15:00 8,1 C 74 % 1031,3 hPa 0,0 mm 1,8 km/h (1 Bft) O-SO 247 2 min 0 W/m 3,8 C 8,1 C 3,2 km/h (1 Bft)
18/01/2012 15:10 8,0 C 74 % 1031,4 hPa 0,0 mm 4,0 km/h (1 Bft) SO 225 2 min 0 W/m 3,7 C 8,0 C 6,8 km/h (2 Bft)
18/01/2012 15:20 7,9 C 74 % 1031,4 hPa 0,0 mm 5,0 km/h (1 Bft) O 270 2 min 0 W/m 3,6 C 7,4 C 8,3 km/h (2 Bft)
18/01/2012 15:30 7,8 C 74 % 1031,3 hPa 0,0 mm 5,8 km/h (2 Bft) SO 225 2 min 0 W/m 3,5 C 7,0 C 10,1 km/h (2 Bft)
18/01/2012 15:40 7,8 C 75 % 1031,4 hPa 0,0 mm 4,3 km/h (1 Bft) S-SO 202 2 min 0 W/m 3,7 C 7,8 C 4,3 km/h (1 Bft)
18/01/2012 15:50 7,8 C 75 % 1031,2 hPa 0,0 mm 3,6 km/h (1 Bft) S-SO 202 2 min 0 W/m 3,7 C 7,8 C 6,5 km/h (2 Bft)
18/01/2012 16:00 7,8 C 75 % 1031,4 hPa 0,0 mm 2,5 km/h (1 Bft) SO 225 2 min 0 W/m 3,7 C 7,8 C 3,6 km/h (1 Bft)
18/01/2012 16:10 7,8 C 75 % 1031,3 hPa 0,0 mm 0,7 km/h (0 Bft) SO 225 2 min 0 W/m 3,7 C 7,8 C 4,3 km/h (1 Bft)
18/01/2012 16:20 7,8 C 76 % 1031,2 hPa 0,0 mm 4,7 km/h (1 Bft) S-SO 202 2 min 0 W/m 3,8 C 7,4 C 8,3 km/h (2 Bft)
18/01/2012 16:30 7,8 C 75 % 1031,2 hPa 0,0 mm 4,3 km/h (1 Bft) O-SO 247 2 min 0 W/m 3,7 C 7,8 C 7,2 km/h (2 Bft)
18/01/2012 16:40 7,8 C 76 % 1031,3 hPa 0,0 mm 4,3 km/h (1 Bft) S-SO 202 2 min 0 W/m 3,8 C 7,8 C 6,5 km/h (2 Bft)
18/01/2012 16:50 7,8 C 76 % 1031,2 hPa 0,0 mm 4,7 km/h (1 Bft) S-SO 202 2 min 0 W/m 3,8 C 7,4 C 4,7 km/h (1 Bft)
18/01/2012 17:00 7,7 C 77 % 1031,3 hPa 0,0 mm 4,0 km/h (1 Bft) SO 225 2 min 0 W/m 3,9 C 7,7 C 4,3 km/h (1 Bft)
18/01/2012 17:10 7,7 C 77 % 1031,5 hPa 0,0 mm 4,0 km/h (1 Bft) SO 225 2 min 0 W/m 3,9 C 7,7 C 7,6 km/h (2 Bft)
18/01/2012 17:20 7,6 C 77 % 1031,5 hPa 0,0 mm 1,4 km/h (1 Bft) SO 225 2 min 0 W/m 3,8 C 7,6 C 3,2 km/h (1 Bft)
18/01/2012 17:30 7,6 C 77 % 1031,8 hPa 0,0 mm 1,4 km/h (1 Bft) S-SO 202 0 min 0 W/m 3,8 C 7,6 C 3,2 km/h (1 Bft)
18/01/2012 17:40 7,5 C 78 % 1031,7 hPa 0,0 mm 4,7 km/h (1 Bft) S-SO 202 0 min 0 W/m 3,9 C 7,0 C 7,2 km/h (2 Bft)
18/01/2012 17:50 7,4 C 78 % 1031,6 hPa 0,0 mm 5,0 km/h (1 Bft) SO 225 0 min 0 W/m 3,8 C 6,8 C 8,6 km/h (2 Bft)
18/01/2012 18:00 7,4 C 78 % 1031,6 hPa 0,0 mm 4,0 km/h (1 Bft) SO 225 0 min 0 W/m 3,8 C 7,4 C 4,0 km/h (1 Bft)
18/01/2012 18:10 7,4 C 78 % 1031,7 hPa 0,0 mm 3,2 km/h (1 Bft) SO 225 0 min 0 W/m 3,8 C 7,4 C 4,3 km/h (1 Bft)
18/01/2012 18:20 7,4 C 79 % 1031,8 hPa 0,0 mm 4,0 km/h (1 Bft) S-SO 202 0 min 0 W/m 4,0 C 7,4 C 7,2 km/h (2 Bft)
18/01/2012 18:30 7,3 C 79 % 1031,9 hPa 0,0 mm 2,9 km/h (1 Bft) O-SO 247 0 min 0 W/m 3,9 C 7,3 C 2,9 km/h (1 Bft)
18/01/2012 18:40 7,3 C 79 % 1032,1 hPa 0,0 mm 2,2 km/h (1 Bft) O-SO 247 0 min 0 W/m 3,9 C 7,3 C 4,3 km/h (1 Bft)
18/01/2012 18:50 7,3 C 79 % 1032,1 hPa 0,0 mm 1,8 km/h (1 Bft) S-SO 202 0 min 0 W/m 3,9 C 7,3 C 3,6 km/h (1 Bft)
18/01/2012 19:00 7,3 C 79 % 1032,1 hPa 0,0 mm 2,2 km/h (1 Bft) SO 225 0 min 0 W/m 3,9 C 7,3 C 4,0 km/h (1 Bft)
18/01/2012 19:10 7,2 C 80 % 1032,3 hPa 0,0 mm 0,0 km/h (0 Bft) SO 225 0 min 0 W/m 4,0 C 7,2 C 0,0 km/h (0 Bft)
18/01/2012 19:20 7,2 C 80 % 1032,4 hPa 0,0 mm 0,0 km/h (0 Bft) SO 225 0 min 0 W/m 4,0 C 7,2 C 0,0 km/h (0 Bft)
18/01/2012 19:30 7,1 C 80 % 1032,3 hPa 0,0 mm 2,9 km/h (1 Bft) S-SO 202 0 min 0 W/m 3,9 C 7,1 C 4,3 km/h (1 Bft)
18/01/2012 19:40 7,1 C 80 % 1032,3 hPa 0,0 mm 3,2 km/h (1 Bft) S-SO 202 0 min 0 W/m 3,9 C 7,1 C 3,2 km/h (1 Bft)
18/01/2012 19:50 7,1 C 80 % 1032,3 hPa 0,0 mm 5,8 km/h (2 Bft) S-SO 202 0 min 0 W/m 3,9 C 6,2 C 8,3 km/h (2 Bft)
18/01/2012 20:00 7,1 C 79 % 1032,4 hPa 0,0 mm 4,0 km/h (1 Bft) S-SO 202 0 min 0 W/m 3,7 C 7,1 C 7,6 km/h (2 Bft)
18/01/2012 20:10 7,1 C 80 % 1032,4 hPa 0,0 mm 5,8 km/h (2 Bft) O-SO 247 0 min 0 W/m 3,9 C 6,2 C 5,8 km/h (2 Bft)
18/01/2012 20:20 6,9 C 82 % 1032,4 hPa 0,0 mm 9,4 km/h (2 Bft) SO 225 0 min 0 W/m 4,0 C 5,1 C 11,5 km/h (2 Bft)
18/01/2012 20:30 6,8 C 82 % 1032,5 hPa 0,0 mm 4,3 km/h (1 Bft) S-SO 202 0 min 0 W/m 3,9 C 6,8 C 7,6 km/h (2 Bft)
18/01/2012 20:40 6,8 C 82 % 1032,5 hPa 0,0 mm 10,4 km/h (2 Bft) S-SO 202 0 min 0 W/m 3,9 C 4,7 C 16,6 km/h (3 Bft)
18/01/2012 20:50 6,6 C 83 % 1032,4 hPa 0,0 mm 6,8 km/h (2 Bft) S 180 0 min 0 W/m 3,9 C 5,3 C 10,8 km/h (2 Bft)
18/01/2012 21:00 6,6 C 84 % 1032,6 hPa 0,0 mm 2,9 km/h (1 Bft) SO 225 0 min 0 W/m 4,1 C 6,6 C 7,2 km/h (2 Bft)
18/01/2012 21:10 6,5 C 85 % 1032,5 hPa 0,0 mm 4,3 km/h (1 Bft) SO 225 0 min 0 W/m 4,2 C 6,5 C 4,3 km/h (1 Bft)
18/01/2012 21:20 6,4 C 85 % 1032,6 hPa 0,0 mm 4,3 km/h (1 Bft) S-SO 202 0 min 0 W/m 4,1 C 6,4 C 4,3 km/h (1 Bft)
18/01/2012 21:30 6,4 C 85 % 1032,5 hPa 0,0 mm 3,2 km/h (1 Bft) S-SO 202 0 min 0 W/m 4,1 C 6,4 C 4,0 km/h (1 Bft)
18/01/2012 21:40 6,5 C 85 % 1032,5 hPa 0,0 mm 4,7 km/h (1 Bft) S-SO 202 0 min 0 W/m 4,2 C 5,9 C 7,2 km/h (2 Bft)
18/01/2012 21:50 6,5 C 84 % 1032,5 hPa 0,0 mm 3,2 km/h (1 Bft) O-SO 247 0 min 0 W/m 4,0 C 6,5 C 8,3 km/h (2 Bft)
18/01/2012 22:00 6,6 C 82 % 1032,6 hPa 0,0 mm 9,0 km/h (2 Bft) S 180 0 min 0 W/m 3,8 C 4,8 C 13,0 km/h (3 Bft)
18/01/2012 22:10 6,6 C 82 % 1032,6 hPa 0,0 mm 4,0 km/h (1 Bft) S 180 0 min 0 W/m 3,8 C 6,6 C 9,4 km/h (2 Bft)
18/01/2012 22:20 6,6 C 83 % 1032,7 hPa 0,0 mm 5,8 km/h (2 Bft) S-SE 157 0 min 0 W/m 3,9 C 5,6 C 10,4 km/h (2 Bft)
18/01/2012 22:30 6,4 C 84 % 1032,7 hPa 0,0 mm 4,3 km/h (1 Bft) S-SO 202 0 min 0 W/m 3,9 C 6,4 C 6,1 km/h (2 Bft)
18/01/2012 22:40 6,3 C 85 % 1032,7 hPa 0,0 mm 5,4 km/h (2 Bft) S-SO 202 0 min 0 W/m 4,0 C 5,4 C 10,8 km/h (2 Bft)
18/01/2012 22:50 6,2 C 85 % 1032,7 hPa 0,0 mm 4,7 km/h (1 Bft) S-SO 202 0 min 0 W/m 3,9 C 5,6 C 7,9 km/h (2 Bft)
18/01/2012 23:00 6,1 C 86 % 1032,6 hPa 0,0 mm 5,8 km/h (2 Bft) S-SO 202 0 min 0 W/m 3,9 C 5,1 C 8,3 km/h (2 Bft)
18/01/2012 23:10 6,1 C 86 % 1032,5 hPa 0,0 mm 5,8 km/h (2 Bft) S-SO 202 0 min 0 W/m 3,9 C 5,1 C 8,6 km/h (2 Bft)
_ Min-Heure 03:00 14:00 02:10 - 19:20 - - - - 03:00 03:00 19:20
Minimum _ -0,1 C 70 % 1029,7 hPa - 0,0 km/h (0 Bft) - - - - -1,2 C -0,1 C 0,0 km/h (0 Bft)
_ Max-Heure 13:50 04:40 22:50 23:10 20:40 - - 17:20 23:10 21:40 14:00 20:40
Maximum _ 8,9 C 93 % 1032,7 hPa 0,0 mm 10,4 km/h
S-SO (2 Bft)
- - 2 min 0 W/m 4,2 C 8,8 C 16,6 km/h
S-SO (3 Bft)
Moyenne _ 5,0 C 83 % 1031,3 hPa #0,0 mm 2,8 km/h (1 Bft) S-SO - #1:44 h 0 W/m 2,3 C 4,8 C 4,7 km/h (1 Bft)
Saint Bonnet de Bellac- Haute Vienne - France